Yakima, WA

1:43 AM PDT on June 20, 2018 (GMT -0700)
Yakima Air Term-McAllister

Weather History for KYKM - November, 2017

Change the Weather History Date:

Tuesday, November 21, 2017

  Actual Average Record
Temperature  
Mean Temperature 39 °F 35 °F  
Max Temperature 44 °F 45 °F 62 °F (1980)
Min Temperature 33 °F 26 °F 0 °F (1985)
Degree Days  
Heating Degree Days 26 30  
Month to date heating degree days 495 545  
Since 1 July heating degree days 1056 1249  
Cooling Degree Days 0 0  
Month to date cooling degree days 0 0  
Year to date cooling degree days 1054 472  
Moisture  
Dew Point 38 °F    
Average Humidity 85    
Maximum Humidity 96    
Minimum Humidity 73    
Precipitation  
Precipitation 0.23 in 0.04 in 0.67 in (1992)
Month to date precipitation 1.05 0.69  
Year to date precipitation 9.79 6.36  
Snow  
Snow 0.00 in 0.10 in 5.40 in (1985)
Month to date snowfall 0.4 1.6  
Year to date snowfall 29.5 10.3  
Since 1 July snowfall 0.4 1.7  
Snow Depth 0.00 in    
Sea Level Pressure  
Sea Level Pressure 30.13 in    
Wind  
Wind Speed 3 mph (West)    
Max Wind Speed 10 mph    
Max Gust Speed 13 mph    
Visibility 8 miles    
Events Rain    
T = Trace of Precipitation, MM = Missing Value Source: NWS Daily Summary

Daily Weather History Graph

Daily Weather History Graph

Search for Another Location

Airport or City:

Astronomy

Nov. 21, 2017 Rise Set
Actual Time 7:13 AM PST 4:22 PM PST
Civil Twilight 6:39 AM PST 4:56 PM PST
Nautical Twilight 6:02 AM PST 5:33 PM PST
Astronomical Twilight 5:26 AM PST 6:09 PM PST
Moon 9:51 AM PST (11/21) 7:07 PM PST (11/21)
Length of Visible Light 10h 16m
Length of Day
9h 09m
Waxing Crescent, 10% of the Moon is Illuminated
Nov 21
Waxing Crescent
Nov 26
First Quarter
Dec 3
Full
Dec 9
Last Quarter
Dec 17
New

Hourly Weather History & Observations

Time (PST) Temp. Windchill Dew Point Humidity Pressure Visibility Wind Dir Wind Speed Gust Speed Precip Events Conditions
12:53 AM 34.0 °F 27.2 °F 30.0 °F 85% 30.13 in 10.0 mi West 8.1 mph - N/A   Clear
1:53 AM 35.1 °F 29.3 °F 30.9 °F 85% 30.14 in 10.0 mi WSW 6.9 mph - N/A   Clear
2:53 AM 33.1 °F 27.7 °F 30.0 °F 89% 30.16 in 10.0 mi WNW 5.8 mph - N/A   Partly Cloudy
3:53 AM 36.0 °F 31.1 °F 30.9 °F 82% 30.17 in 10.0 mi West 5.8 mph - N/A   Overcast
4:53 AM 37.0 °F - 33.1 °F 86% 30.17 in 10.0 mi North - - 0.00 in   Overcast
5:53 AM 41.0 °F 38.0 °F 34.0 °F 76% 30.15 in 10.0 mi WSW 4.6 mph - N/A   Overcast
6:53 AM 39.9 °F 35.1 °F 35.1 °F 83% 30.17 in 10.0 mi West 6.9 mph - 0.00 in Rain Light Rain
7:53 AM 39.9 °F 37.8 °F 37.0 °F 89% 30.17 in 7.0 mi WSW 3.5 mph - 0.01 in Rain Light Rain
8:53 AM 41.0 °F - 37.9 °F 89% 30.19 in 9.0 mi Calm Calm - 0.06 in Rain Light Rain
9:53 AM 42.1 °F 40.2 °F 39.0 °F 89% 30.19 in 6.0 mi West 3.5 mph - 0.01 in Rain Light Rain
10:53 AM 43.0 °F - 39.0 °F 86% 30.20 in 8.0 mi Calm Calm - 0.01 in Rain Light Rain
11:53 AM 43.0 °F 40.3 °F 39.0 °F 86% 30.19 in 7.0 mi West 4.6 mph - 0.03 in Rain Light Rain
12:53 PM 43.0 °F 41.3 °F 39.9 °F 89% 30.16 in 4.0 mi West 3.5 mph - 0.06 in Rain Light Rain
1:00 PM 43.0 °F - 39.9 °F 89% 30.13 in 5.0 mi Calm Calm - 0.00 in Rain Light Rain
1:10 PM 43.0 °F - 39.9 °F 89% 30.13 in 5.0 mi Calm Calm - 0.01 in Rain Light Rain
1:53 PM 44.1 °F - 39.9 °F 85% 30.14 in 6.0 mi Calm Calm - 0.05 in Rain Light Rain
2:00 PM 43.0 °F 41.3 °F 39.9 °F 89% 30.12 in 9.0 mi WSW 3.5 mph - 0.00 in Rain Light Rain
2:20 PM 44.1 °F - 39.9 °F 85% 30.11 in 10.0 mi Calm Calm - 0.00 in Rain Light Rain
2:34 PM 44.1 °F 42.5 °F 41.0 °F 89% 30.11 in 10.0 mi West 3.5 mph - 0.00 in   Overcast
2:53 PM 43.0 °F 41.3 °F 41.0 °F 93% 30.13 in 6.0 mi West 3.5 mph - 0.00 in Rain Light Rain
3:53 PM 43.0 °F - 41.0 °F 93% 30.12 in 9.0 mi Calm Calm - 0.00 in   Overcast
4:53 PM 43.0 °F - 41.0 °F 93% 30.09 in 10.0 mi Calm Calm - N/A   Overcast
5:35 PM 43.0 °F - 39.9 °F 89% 30.07 in 10.0 mi Calm Calm - N/A   Overcast
5:53 PM 43.0 °F - 41.0 °F 93% 30.09 in 10.0 mi Calm Calm - N/A   Overcast
6:15 PM 43.0 °F 41.3 °F 39.9 °F 89% 30.07 in 9.0 mi West 3.5 mph - N/A   Overcast
6:53 PM 43.0 °F 40.3 °F 39.9 °F 89% 30.11 in 10.0 mi WSW 4.6 mph - N/A   Overcast
7:25 PM 43.0 °F 40.3 °F 39.9 °F 89% 30.08 in 9.0 mi SW 4.6 mph - 0.00 in Rain Light Rain
7:53 PM 43.0 °F - 41.0 °F 93% 30.09 in 8.0 mi Calm Calm - 0.00 in   Overcast
8:33 PM 43.0 °F - 41.0 °F 93% 30.08 in 6.0 mi Calm Calm - N/A   Overcast
8:53 PM 43.0 °F - 41.0 °F 93% 30.11 in 6.0 mi Calm Calm - N/A   Overcast
9:24 PM 43.0 °F 41.3 °F 41.0 °F 93% 30.08 in 5.0 mi East 3.5 mph - N/A   Mostly Cloudy
9:53 PM 43.0 °F - 41.0 °F 93% 30.10 in 4.0 mi Calm Calm - N/A   Overcast
10:20 PM 43.0 °F - 39.9 °F 89% 30.08 in 4.0 mi Calm Calm - N/A   Overcast
10:53 PM 43.0 °F - 41.0 °F 93% 30.10 in 4.0 mi Calm Calm - N/A   Overcast
11:04 PM 43.0 °F 41.3 °F 41.0 °F 93% 30.08 in 4.0 mi NE 3.5 mph - N/A   Overcast
11:53 PM 42.1 °F 40.2 °F 39.9 °F 92% 30.11 in 3.0 mi WSW 3.5 mph - N/A   Overcast